Total_Precipitation_Accumulation
0.00 0.01 0.01 0.02 0.02 0.03 0.06 0.09 0.18 0.23 0.16 0.17 0.32 0.50 0.63 0.72 0.93 1.04 1.02 0.99 1.02 1.30 1.64 1.82 2.07 2.34 2.94 3.46 3.98 4.08 3.99 3.26 2.60 2.28 2.03 1.90 1.71 1.52 1.51 1.45 1.32 1.26 1.15 1.12
0.02 0.04 0.03 0.02 0.03 0.05 0.09 0.12 0.20 0.22 0.14 0.16 0.33 0.59 0.77 0.83 0.79 0.84 0.82 0.87 0.92 1.28 1.68 2.05 2.53 2.76 2.69 3.04 3.56 3.53 3.05 2.48 2.04 1.74 1.59 1.47 1.39 1.25 1.14 1.02 0.96 0.92 0.92 0.95
0.04 0.05 0.03 0.03 0.05 0.10 0.12 0.14 0.18 0.16 0.14 0.21 0.39 0.73 0.99 0.91 0.66 0.59 0.61 0.65 0.80 1.12 1.53 1.92 2.33 2.60 2.49 2.70 2.73 2.30 1.93 1.63 1.38 1.21 1.13 1.12 1.05 0.93 0.75 0.63 0.59 0.63 0.67 0.68
0.03 0.03 0.03 0.04 0.06 0.07 0.08 0.08 0.07 0.07 0.12 0.28 0.42 0.91 1.24 1.04 0.74 0.59 0.57 0.65 0.73 0.80 0.98 1.26 1.48 1.81 1.99 1.95 1.81 1.63 1.42 1.21 1.08 1.04 0.96 0.96 0.82 0.70 0.59 0.49 0.49 0.50 0.51 0.49
0.03 0.03 0.03 0.04 0.05 0.05 0.05 0.04 0.05 0.08 0.12 0.26 0.47 0.77 1.11 1.08 0.94 0.76 0.64 0.64 0.58 0.53 0.60 0.75 0.83 1.00 1.20 1.29 1.26 1.15 1.23 1.21 1.07 0.98 0.90 0.86 0.73 0.60 0.50 0.49 0.53 0.52 0.50 0.47
0.05 0.05 0.04 0.03 0.04 0.04 0.04 0.05 0.12 0.25 0.37 0.65 0.64 0.66 0.96 0.90 0.83 0.78 0.63 0.49 0.39 0.35 0.42 0.51 0.53 0.57 0.66 0.75 0.82 0.86 0.94 1.01 0.92 0.84 0.80 0.78 0.70 0.61 0.51 0.47 0.47 0.44 0.44 0.44
0.14 0.12 0.09 0.05 0.05 0.05 0.05 0.09 0.31 0.67 0.96 1.05 0.62 0.61 0.81 0.70 0.71 0.74 0.52 0.31 0.25 0.27 0.29 0.36 0.37 0.39 0.45 0.48 0.55 0.59 0.64 0.70 0.69 0.69 0.70 0.69 0.65 0.58 0.50 0.42 0.38 0.36 0.33 0.35
0.15 0.18 0.10 0.05 0.05 0.06 0.06 0.07 0.19 0.32 0.44 0.58 0.62 0.98 0.92 0.54 0.53 0.43 0.24 0.14 0.14 0.22 0.21 0.21 0.23 0.27 0.31 0.29 0.34 0.38 0.38 0.41 0.43 0.53 0.58 0.52 0.49 0.42 0.39 0.44 0.41 0.35 0.30 0.32
0.07 0.06 0.05 0.05 0.05 0.07 0.05 0.05 0.06 0.09 0.14 0.37 0.70 0.99 0.73 0.38 0.36 0.23 0.13 0.07 0.07 0.09 0.12 0.12 0.12 0.13 0.18 0.19 0.20 0.22 0.27 0.33 0.33 0.35 0.41 0.40 0.38 0.35 0.37 0.42 0.39 0.32 0.30 0.27
0.04 0.02 0.04 0.05 0.05 0.07 0.06 0.06 0.06 0.07 0.13 0.28 0.56 0.85 0.79 0.53 0.41 0.23 0.12 0.07 0.06 0.05 0.06 0.07 0.07 0.09 0.13 0.15 0.17 0.20 0.26 0.27 0.27 0.27 0.25 0.23 0.29 0.34 0.40 0.41 0.34 0.29 0.27 0.24
0.04 0.02 0.03 0.04 0.06 0.08 0.08 0.08 0.09 0.10 0.12 0.19 0.41 0.59 0.46 0.42 0.30 0.19 0.14 0.13 0.07 0.04 0.04 0.04 0.04 0.07 0.11 0.13 0.16 0.19 0.23 0.25 0.24 0.23 0.23 0.26 0.32 0.33 0.38 0.51 0.48 0.33 0.27 0.24
0.04 0.03 0.04 0.08 0.11 0.10 0.09 0.10 0.11 0.14 0.15 0.15 0.23 0.36 0.28 0.26 0.19 0.17 0.13 0.13 0.07 0.04 0.04 0.04 0.05 0.06 0.09 0.14 0.15 0.16 0.21 0.25 0.27 0.27 0.23 0.25 0.31 0.32 0.32 0.37 0.41 0.35 0.29 0.25
0.06 0.05 0.07 0.20 0.30 0.21 0.13 0.10 0.11 0.12 0.13 0.14 0.26 0.37 0.30 0.26 0.21 0.15 0.09 0.09 0.07 0.05 0.05 0.06 0.07 0.11 0.10 0.13 0.16 0.18 0.21 0.25 0.28 0.35 0.32 0.27 0.24 0.21 0.19 0.23 0.27 0.29 0.32 0.34
0.07 0.06 0.07 0.20 0.28 0.30 0.21 0.15 0.15 0.12 0.13 0.16 0.22 0.35 0.27 0.28 0.26 0.16 0.13 0.13 0.11 0.06 0.05 0.06 0.07 0.10 0.16 0.16 0.18 0.20 0.22 0.25 0.32 0.32 0.30 0.27 0.25 0.25 0.26 0.26 0.27 0.30 0.32 0.34
0.08 0.06 0.05 0.08 0.14 0.17 0.17 0.17 0.16 0.12 0.11 0.16 0.17 0.24 0.23 0.21 0.30 0.22 0.21 0.20 0.17 0.11 0.07 0.06 0.07 0.10 0.19 0.24 0.23 0.23 0.23 0.26 0.33 0.39 0.38 0.32 0.27 0.27 0.29 0.29 0.28 0.29 0.30 0.30
0.14 0.11 0.10 0.09 0.12 0.12 0.14 0.16 0.14 0.09 0.08 0.07 0.11 0.17 0.18 0.23 0.28 0.25 0.22 0.20 0.27 0.21 0.13 0.11 0.10 0.12 0.16 0.20 0.23 0.21 0.22 0.24 0.30 0.37 0.44 0.47 0.42 0.37 0.36 0.37 0.35 0.36 0.35 0.36
0.26 0.20 0.19 0.19 0.15 0.15 0.21 0.18 0.14 0.11 0.09 0.10 0.16 0.20 0.25 0.29 0.28 0.27 0.30 0.24 0.22 0.17 0.13 0.13 0.13 0.14 0.15 0.17 0.18 0.19 0.18 0.23 0.37 0.44 0.45 0.54 0.60 0.53 0.55 0.57 0.51 0.49 0.47 0.48
0.33 0.33 0.26 0.25 0.28 0.34 0.23 0.17 0.16 0.18 0.19 0.18 0.19 0.25 0.36 0.40 0.33 0.31 0.34 0.32 0.25 0.15 0.14 0.15 0.12 0.11 0.12 0.13 0.14 0.15 0.19 0.24 0.37 0.44 0.43 0.54 0.66 0.61 0.63 0.64 0.61 0.64 0.70 0.71
0.35 0.41 0.40 0.37 0.38 0.39 0.29 0.26 0.27 0.32 0.35 0.30 0.33 0.40 0.41 0.35 0.31 0.34 0.31 0.23 0.17 0.13 0.13 0.13 0.14 0.13 0.13 0.15 0.16 0.19 0.27 0.36 0.46 0.53 0.58 0.66 0.78 0.81 0.84 0.84 0.85 0.90 0.96 1.00
0.30 0.39 0.46 0.48 0.52 0.57 0.46 0.38 0.37 0.45 0.65 0.51 0.43 0.42 0.34 0.33 0.40 0.42 0.29 0.22 0.18 0.14 0.14 0.16 0.19 0.19 0.19 0.22 0.26 0.32 0.42 0.55 0.65 0.67 0.69 0.77 0.92 1.00 1.00 1.00 1.03 1.07 1.15 1.18
0.40 0.41 0.45 0.52 0.58 0.53 0.47 0.44 0.45 0.76 0.95 0.65 0.56 0.58 0.57 0.52 0.47 0.39 0.30 0.26 0.22 0.16 0.15 0.18 0.22 0.27 0.31 0.34 0.40 0.48 0.57 0.66 0.67 0.69 0.76 0.82 1.01 1.20 1.20 1.22 1.21 1.22 1.27 1.32
0.57 0.57 0.55 0.60 0.78 0.80 0.56 0.53 0.75 0.96 0.86 0.80 0.69 0.64 0.66 0.57 0.44 0.37 0.29 0.25 0.20 0.17 0.16 0.19 0.23 0.26 0.34 0.43 0.53 0.63 0.65 0.66 0.71 0.75 0.80 0.90 1.10 1.19 1.24 1.34 1.36 1.40 1.39 1.36
0.60 0.70 0.70 0.77 0.92 0.83 0.71 0.76 0.78 0.82 0.81 0.74 0.63 0.59 0.58 0.55 0.47 0.41 0.33 0.26 0.21 0.16 0.16 0.18 0.21 0.26 0.33 0.43 0.59 0.73 0.76 0.77 0.76 0.77 0.81 0.90 1.00 1.08 1.19 1.25 1.23 1.28 1.35 1.37
0.63 0.61 0.77 1.02 1.01 0.91 0.80 0.75 0.71 0.60 0.54 0.52 0.48 0.40 0.36 0.36 0.34 0.31 0.26 0.23 0.22 0.19 0.17 0.18 0.21 0.28 0.33 0.40 0.54 0.66 0.72 0.75 0.74 0.71 0.71 0.80 0.95 1.01 1.08 1.21 1.22 1.28 1.34 1.39
0.65 0.66 0.84 1.12 1.13 1.00 0.94 0.86 0.82 0.62 0.51 0.43 0.40 0.34 0.30 0.28 0.26 0.23 0.22 0.19 0.16 0.14 0.15 0.17 0.22 0.29 0.33 0.43 0.57 0.68 0.73 0.78 0.80 0.77 0.73 0.75 0.84 0.93 1.00 1.13 1.22 1.24 1.25 1.20
0.47 0.67 0.91 1.05 1.00 0.95 0.96 0.78 0.74 0.70 0.55 0.42 0.38 0.34 0.27 0.22 0.20 0.18 0.17 0.15 0.12 0.12 0.14 0.19 0.25 0.32 0.35 0.42 0.52 0.62 0.76 0.90 0.95 0.89 0.81 0.77 0.77 0.86 0.92 1.01 1.03 0.94 0.91 0.88